Probability
3 0 0 0 0 0 0 0 0 0 0 0 0 0 0 0 0 0 0 0 0 0 0 0 0 3 3 0 0 0 0 0 0 3 3 3 3 0 0 0 0 0 0
3 0 0 0 0 0 0 0 0 0 0 0 0 0 0 0 0 0 0 0 0 0 0 0 0 3 3 3 6 3 0 0 0 6 3 6 3 3 0 0 0 0 0
0 0 0 0 0 0 0 0 0 0 0 0 0 0 0 0 0 0 0 0 0 0 0 0 0 0 3 3 6 6 6 3 3 6 6 3 3 3 0 0 0 0 0
0 0 0 0 0 0 0 0 0 0 0 0 0 0 0 0 0 0 0 0 0 0 0 0 0 0 0 3 3 6 13 10 13 10 6 3 3 3 3 0 0 0 0
0 0 0 0 0 0 0 0 0 0 0 0 0 0 0 0 0 0 0 0 0 0 0 0 0 0 0 0 0 0 10 13 10 6 6 6 3 0 0 0 3 3 0
0 0 0 0 0 0 0 0 0 0 0 0 0 0 0 0 0 0 0 0 0 0 0 0 0 0 0 0 0 0 0 10 10 6 6 6 6 3 0 0 0 0 0
0 0 0 0 0 0 0 0 0 0 0 0 0 0 0 0 0 0 0 0 0 0 0 0 0 0 0 0 0 0 0 3 10 10 6 6 3 3 3 0 0 0 0
0 0 0 0 0 0 0 0 0 0 0 0 0 0 0 0 0 0 0 0 0 0 0 0 0 0 0 0 0 0 0 0 0 6 10 3 3 3 3 3 0 0 0
0 0 0 0 0 0 0 0 0 0 0 0 0 0 0 0 0 0 0 0 0 0 0 0 0 0 0 0 0 0 0 0 0 3 3 3 3 3 3 3 3 3 3
0 0 0 0 0 0 0 0 0 0 0 0 0 0 0 0 0 0 0 0 0 0 0 0 0 0 0 0 0 0 0 0 0 0 3 3 0 3 3 3 3 3 3
0 0 0 0 0 0 0 0 0 0 0 0 0 0 0 0 0 0 0 0 0 0 0 0 0 0 0 0 0 0 0 0 0 0 0 3 3 0 3 3 3 3 3
0 0 0 0 0 0 0 0 0 0 0 0 0 0 0 0 0 0 0 0 0 0 0 0 0 0 0 0 0 0 0 0 0 0 0 3 0 0 0 0 3 3 3
0 0 0 0 0 0 0 0 0 0 0 0 0 0 0 0 0 0 0 0 0 0 0 0 0 0 0 0 0 0 0 0 0 0 0 0 0 0 0 0 0 0 0
0 0 0 0 0 0 0 0 0 0 0 0 0 0 0 0 0 0 0 0 0 0 0 0 0 0 0 0 0 0 0 0 0 0 0 0 0 0 0 0 0 0 0
0 0 0 0 0 0 0 0 0 0 0 0 0 0 0 0 0 0 0 0 0 0 0 0 0 0 0 0 0 0 0 0 0 0 0 0 0 0 0 0 0 0 0
0 0 0 0 0 0 0 0 0 0 0 0 0 0 0 0 0 0 0 0 0 0 0 0 0 0 0 0 0 0 0 0 0 0 0 0 0 0 0 0 0 0 0
0 0 0 0 0 0 0 0 0 0 0 0 0 0 0 0 0 0 0 0 0 0 0 0 0 0 0 0 0 0 0 0 0 0 0 0 0 0 0 0 0 0 0
0 0 0 0 0 0 0 0 0 0 0 0 0 0 0 0 0 0 0 0 0 0 0 0 0 0 0 0 0 0 0 0 0 0 0 0 0 0 0 0 0 0 0
0 0 0 0 0 0 0 0 0 0 0 0 0 0 0 0 0 0 0 0 0 0 0 0 0 0 0 0 0 0 0 0 0 0 0 0 0 0 0 0 0 0 0
0 0 0 0 0 0 0 0 0 0 0 0 0 0 0 0 0 0 0 0 0 0 0 0 0 0 0 0 0 0 0 0 0 0 0 0 0 0 0 0 0 0 0
0 0 0 0 0 0 0 0 0 0 0 0 0 0 0 0 0 0 0 0 0 0 0 0 0 0 0 0 0 0 0 0 0 0 0 0 0 0 0 0 0 0 0
0 0 0 0 0 0 0 0 0 0 0 0 0 0 0 0 0 0 0 0 0 0 0 0 0 0 0 0 0 0 0 0 0 0 0 0 0 0 0 0 0 0 0
0 0 0 0 0 0 0 0 0 0 0 0 0 0 0 0 0 0 0 0 0 0 0 0 0 0 0 0 0 0 0 0 0 0 0 0 0 0 0 0 0 0 0
0 0 0 0 0 0 0 0 0 0 0 0 0 0 0 0 0 0 0 0 0 0 0 0 0 0 0 0 0 0 0 0 0 0 0 0 0 0 0 0 0 0 0
0 0 0 0 0 0 0 0 0 0 0 0 0 0 0 0 0 0 0 0 0 0 0 0 0 0 0 0 0 0 0 0 0 0 0 0 0 0 0 0 0 0 0
0 0 0 0 0 0 0 0 0 0 0 0 0 0 0 0 0 0 0 0 0 0 0 0 0 0 0 0 0 0 0 0 0 0 0 0 0 0 0 0 0 0 0
Height
5811 5815 5818 5821 5824 5827 5830 5832 5834 5836 5838 5839 5840 5841 5842 5843 5843 5844 5844 5844 5844 5844 5844 5844 5843 5843 5842 5841 5840 5839 5838 5836 5835 5833 5832 5830 5828 5826 5824 5822 5819 5817 5815
5804 5808 5811 5814 5818 5821 5823 5826 5828 5830 5831 5833 5834 5835 5836 5837 5838 5838 5839 5839 5839 5839 5839 5838 5838 5837 5836 5835 5834 5833 5832 5830 5829 5827 5825 5823 5822 5820 5818 5815 5813 5811 5809
5796 5800 5804 5807 5811 5814 5816 5819 5821 5823 5825 5827 5828 5829 5830 5831 5832 5832 5832 5833 5833 5833 5832 5832 5832 5831 5830 5829 5828 5827 5826 5824 5822 5821 5819 5817 5815 5813 5811 5809 5807 5805 5803
5787 5792 5796 5800 5803 5807 5809 5812 5814 5816 5818 5820 5821 5822 5823 5824 5825 5825 5826 5826 5826 5826 5826 5825 5825 5824 5824 5823 5821 5820 5819 5817 5816 5814 5812 5810 5808 5806 5804 5802 5800 5798 5796
5778 5783 5788 5792 5796 5799 5802 5804 5807 5809 5811 5812 5814 5815 5816 5817 5817 5818 5818 5819 5819 5819 5819 5818 5818 5817 5816 5815 5814 5813 5811 5810 5808 5807 5805 5803 5801 5799 5797 5795 5793 5791 5789
5769 5775 5779 5783 5787 5791 5794 5796 5799 5801 5803 5804 5805 5807 5808 5809 5810 5810 5811 5811 5811 5811 5811 5810 5810 5809 5808 5807 5806 5804 5803 5802 5800 5799 5797 5795 5794 5792 5790 5788 5786 5784 5781
5760 5765 5770 5775 5778 5782 5786 5788 5791 5792 5794 5795 5797 5799 5800 5801 5802 5802 5802 5802 5803 5802 5802 5801 5801 5800 5799 5798 5797 5795 5794 5793 5792 5790 5789 5787 5785 5783 5782 5780 5778 5776 5773
5751 5756 5761 5766 5770 5773 5776 5779 5782 5783 5785 5786 5788 5789 5791 5793 5793 5794 5793 5793 5793 5793 5793 5792 5791 5790 5789 5788 5788 5786 5785 5784 5783 5781 5780 5778 5776 5774 5773 5771 5769 5767 5765
5741 5746 5752 5756 5760 5764 5767 5770 5773 5775 5776 5777 5778 5779 5780 5782 5784 5784 5784 5784 5783 5783 5782 5781 5780 5780 5779 5778 5777 5776 5775 5774 5772 5771 5770 5768 5767 5765 5763 5761 5759 5758 5756
5730 5736 5741 5746 5750 5754 5758 5761 5763 5765 5766 5767 5768 5769 5770 5771 5771 5773 5774 5773 5772 5772 5771 5770 5769 5768 5767 5767 5766 5765 5764 5763 5762 5761 5759 5758 5756 5754 5752 5751 5749 5747 5745
5719 5725 5731 5736 5740 5744 5748 5750 5753 5755 5756 5757 5758 5758 5759 5759 5758 5758 5760 5762 5761 5760 5759 5758 5757 5756 5756 5755 5754 5753 5752 5751 5750 5749 5748 5747 5745 5743 5741 5740 5738 5736 5735
5708 5714 5720 5726 5730 5734 5737 5739 5742 5743 5744 5746 5746 5746 5746 5747 5747 5746 5746 5747 5747 5748 5747 5746 5745 5745 5744 5743 5742 5741 5739 5738 5737 5736 5736 5735 5733 5731 5730 5728 5727 5725 5724
5698 5704 5710 5715 5719 5723 5726 5728 5730 5732 5733 5733 5734 5734 5734 5734 5734 5733 5732 5732 5733 5735 5734 5734 5733 5732 5731 5730 5729 5728 5727 5725 5724 5723 5723 5722 5721 5719 5718 5717 5715 5713 5712
5689 5695 5699 5704 5708 5711 5714 5716 5719 5720 5720 5721 5721 5721 5722 5722 5721 5720 5719 5719 5719 5720 5722 5722 5721 5719 5718 5717 5716 5715 5714 5712 5711 5710 5710 5708 5707 5706 5705 5704 5703 5701 5700
5680 5685 5689 5693 5697 5700 5702 5704 5706 5707 5708 5708 5708 5709 5709 5709 5708 5707 5706 5705 5705 5705 5708 5709 5707 5706 5704 5703 5702 5701 5700 5699 5698 5697 5696 5695 5695 5694 5693 5692 5691 5690 5689
5671 5675 5679 5682 5686 5688 5690 5692 5694 5695 5695 5695 5695 5696 5696 5696 5695 5694 5693 5692 5690 5690 5691 5694 5693 5692 5690 5688 5687 5686 5686 5685 5684 5683 5682 5682 5682 5681 5680 5680 5679 5679 5678
5662 5666 5670 5672 5675 5677 5678 5680 5681 5682 5682 5683 5683 5683 5683 5682 5682 5681 5679 5678 5677 5676 5675 5678 5678 5677 5675 5674 5672 5671 5671 5670 5670 5669 5668 5668 5668 5668 5668 5667 5667 5667 5666
5655 5658 5660 5663 5664 5666 5667 5668 5669 5669 5670 5670 5671 5670 5670 5669 5668 5667 5666 5665 5664 5662 5661 5661 5662 5661 5660 5658 5657 5657 5656 5656 5656 5655 5655 5654 5654 5654 5655 5655 5655 5655 5655
5646 5649 5651 5652 5654 5655 5656 5657 5658 5658 5658 5658 5658 5658 5657 5656 5655 5654 5652 5651 5650 5649 5647 5646 5646 5645 5644 5643 5642 5642 5642 5641 5641 5641 5640 5640 5640 5641 5642 5642 5643 5643 5643
5638 5640 5641 5643 5644 5644 5644 5645 5645 5646 5646 5646 5645 5645 5644 5642 5641 5640 5639 5637 5636 5634 5632 5631 5630 5630 5629 5628 5627 5627 5626 5627 5627 5627 5627 5626 5627 5627 5628 5629 5631 5631 5632
5631 5632 5632 5633 5632 5632 5633 5633 5633 5633 5633 5633 5633 5631 5630 5629 5628 5626 5624 5623 5621 5619 5617 5616 5615 5614 5613 5612 5611 5611 5611 5612 5613 5613 5613 5613 5614 5615 5616 5617 5618 5619 5620
5623 5623 5622 5622 5621 5621 5621 5621 5620 5621 5620 5620 5619 5618 5617 5616 5614 5612 5610 5608 5606 5604 5602 5600 5599 5598 5597 5596 5596 5596 5597 5598 5599 5601 5600 5601 5601 5603 5604 5604 5606 5607 5608
5614 5613 5612 5611 5610 5609 5609 5608 5608 5607 5607 5606 5605 5605 5603 5602 5600 5598 5596 5593 5591 5588 5587 5585 5584 5583 5582 5582 5582 5582 5583 5584 5585 5587 5587 5588 5589 5590 5592 5593 5594 5595 5596
5604 5603 5601 5600 5598 5597 5595 5595 5594 5593 5593 5592 5591 5590 5589 5587 5585 5582 5580 5578 5576 5574 5572 5571 5570 5569 5568 5568 5569 5569 5570 5571 5572 5573 5574 5576 5577 5578 5580 5581 5582 5583 5585
5593 5591 5589 5587 5585 5584 5582 5581 5579 5579 5578 5577 5576 5575 5574 5572 5570 5567 5565 5564 5562 5560 5558 5557 5556 5555 5555 5555 5556 5556 5557 5558 5560 5561 5562 5564 5565 5567 5568 5570 5571 5572 5574
5582 5579 5577 5574 5572 5570 5567 5566 5564 5563 5562 5562 5561 5559 5557 5556 5554 5551 5549 5548 5547 5546 5545 5544 5543 5543 5543 5543 5543 5544 5545 5546 5547 5550 5551 5553 5554 5556 5558 5559 5560 5562 5564
Wind_Speed
39 38 37 36 34 33 32 31 31 29 28 27 27 26 26 27 27 27 27 27 27 27 27 27 27 27 27 27 28 28 28 29 30 30 30 30 30 30 30 29 30 30 30
41 39 39 38 36 35 33 33 32 31 31 29 29 29 29 29 29 29 29 28 28 29 29 29 29 29 29 29 29 30 30 31 31 32 32 32 32 32 32 32 32 31 31
43 42 41 39 37 36 36 35 35 34 32 31 31 31 31 31 31 31 31 31 31 31 31 31 31 31 31 31 32 32 32 32 33 33 33 33 34 33 33 33 33 33 32
45 43 42 40 39 38 38 37 36 35 34 33 33 33 32 32 32 32 33 33 33 33 33 33 33 33 33 33 34 34 34 34 35 35 35 36 36 35 35 35 34 34 33
46 44 43 42 41 41 40 38 37 37 36 36 35 35 34 34 34 34 34 35 35 35 35 35 35 35 35 36 36 36 37 37 37 37 37 37 37 36 36 35 35 35 35
47 45 43 43 43 42 40 39 38 38 39 38 38 37 37 37 37 37 37 37 38 38 37 37 37 38 38 38 38 39 39 39 39 39 39 39 38 37 37 37 36 36 37
49 47 45 44 43 42 41 40 41 40 41 41 40 39 39 39 39 39 40 39 39 39 39 39 38 39 39 40 40 41 41 41 41 41 40 40 40 40 39 39 38 38 38
51 48 46 44 43 43 42 41 42 42 41 42 43 43 42 41 41 40 41 41 41 42 41 42 42 42 41 41 41 42 42 42 42 42 41 41 41 41 42 41 40 40 41
52 50 49 47 46 45 44 43 44 44 43 43 43 44 44 44 44 43 43 43 44 44 44 44 45 45 44 44 43 43 44 44 43 43 43 44 44 44 43 43 43 43 43
53 51 50 48 46 45 45 46 45 44 44 45 46 46 46 46 46 45 44 45 45 46 46 47 47 46 46 46 46 46 46 46 45 45 45 45 44 45 44 44 45 45 44
53 52 51 49 49 48 47 47 46 46 47 48 49 48 48 48 48 48 47 47 47 48 48 48 47 47 47 47 47 48 48 48 47 46 46 46 46 46 46 45 45 45 45
54 53 52 51 50 50 48 47 48 49 51 51 50 50 50 49 49 49 49 48 48 48 48 48 48 48 48 47 47 48 49 49 48 48 48 48 48 48 47 46 45 46 46
53 51 51 51 51 50 51 51 51 50 50 50 51 51 51 50 50 50 50 50 49 49 48 48 48 48 49 49 49 49 49 49 49 49 49 48 48 48 47 46 46 47 47
50 49 49 50 50 50 50 50 50 49 49 50 52 51 51 51 51 51 51 51 52 50 49 48 49 51 50 50 50 50 49 50 49 49 49 48 47 47 47 46 47 47 46
48 48 47 47 49 50 50 50 49 50 51 51 52 52 51 50 51 51 51 52 52 51 50 49 50 50 51 51 51 50 50 50 49 48 49 50 48 48 47 46 46 46 46
46 47 46 45 45 46 47 48 49 50 50 50 50 51 50 50 52 53 53 53 52 53 53 51 51 51 51 51 51 51 51 50 50 50 50 50 50 48 47 46 46 46 46
39 40 41 42 44 46 46 46 47 48 48 49 50 50 50 50 51 51 52 52 53 53 53 52 52 52 51 51 52 52 52 51 51 51 51 51 51 50 48 48 47 47 46
36 37 38 40 43 44 45 46 47 46 47 47 48 48 49 49 50 51 52 52 52 53 54 53 51 51 52 51 52 52 52 52 52 51 51 51 51 50 49 49 48 47 45
34 36 37 39 41 43 44 44 44 44 44 44 45 47 47 49 50 50 51 51 51 53 53 53 52 52 51 51 52 52 52 52 51 50 50 50 49 49 48 48 47 46 45
30 32 34 36 39 42 44 44 44 44 44 45 46 47 48 48 49 50 51 51 51 52 53 53 54 53 52 52 53 53 53 52 51 50 50 49 48 48 47 46 45 45 43
30 32 33 35 37 39 41 43 44 45 45 46 46 46 46 47 48 50 50 50 51 52 53 53 53 54 53 53 52 51 52 51 49 49 49 48 47 47 46 44 43 43 42
30 32 35 37 38 38 40 43 44 45 45 46 45 45 46 47 48 49 50 51 52 53 53 53 54 53 52 51 51 50 50 49 48 47 47 46 46 46 45 43 43 42 41
32 34 36 37 39 40 41 42 44 45 45 45 45 46 47 48 49 49 49 50 51 53 53 52 52 52 50 50 49 48 47 46 46 45 45 45 45 44 44 43 42 41 41
32 34 36 39 39 40 41 42 44 45 45 46 46 47 46 47 48 48 49 50 51 51 51 50 51 50 49 47 47 46 46 45 45 44 44 44 43 43 42 42 41 40 39
34 35 36 38 38 39 41 42 44 45 46 47 47 48 48 48 48 48 48 48 48 48 48 48 47 47 46 45 45 44 44 44 43 43 42 42 42 41 41 41 40 39 38
35 35 35 35 38 40 41 43 45 46 47 48 48 49 49 49 49 49 49 48 46 45 45 45 45 44 44 44 43 42 41 40 40 40 40 40 40 40 40 39 38 37 36
Wind_Direction
240 242 243 244 245 247 249 251 252 253 254 256 259 261 263 264 264 266 267 269 271 272 274 275 277 278 280 283 285 288 290 292 294 295 297 298 300 302 302 302 302 303 304
240 242 244 244 245 246 248 250 252 253 254 255 258 260 262 263 264 265 267 269 271 272 274 275 276 278 280 282 284 287 289 292 293 294 295 296 298 300 300 300 300 302 302
239 241 243 243 244 246 247 249 251 253 255 256 259 261 262 263 265 266 267 268 270 272 274 275 275 277 279 282 284 286 288 290 292 294 295 296 297 298 299 299 300 300 300
238 240 240 242 244 246 248 249 251 253 255 257 259 261 262 264 265 267 268 269 271 272 274 275 276 277 279 281 283 285 287 289 291 292 293 294 295 297 297 297 298 298 298
236 237 240 242 244 246 248 249 251 253 255 257 258 260 262 264 266 267 268 269 271 272 273 275 276 278 279 280 282 284 286 287 289 290 292 293 294 295 295 295 296 296 296
235 235 239 241 243 245 247 250 253 255 256 257 259 260 262 264 266 267 268 270 272 272 273 275 276 278 278 279 280 283 285 286 287 288 290 291 292 292 293 294 294 293 294
234 235 238 242 244 245 248 251 253 255 257 258 259 260 262 264 266 268 268 270 271 272 272 274 275 277 277 278 279 281 283 285 286 287 288 288 289 289 290 291 290 291 292
233 233 237 241 245 247 248 251 253 255 257 258 260 260 261 262 265 267 268 269 270 272 272 273 274 276 277 278 279 281 282 284 285 285 285 286 286 287 288 288 288 289 291
233 234 237 240 244 246 248 250 253 256 257 259 260 261 262 263 265 265 267 268 269 271 271 272 274 275 275 276 278 279 281 282 283 283 283 284 285 286 286 287 287 288 289
233 234 237 240 244 247 249 252 254 256 257 258 260 262 264 265 267 266 267 268 269 270 271 272 273 273 274 275 276 278 279 279 281 282 282 284 285 286 286 286 287 288 289
233 235 237 241 244 247 251 252 253 255 258 260 262 264 265 266 267 268 268 269 269 270 271 272 272 273 275 277 278 279 280 279 279 281 282 283 284 285 286 286 287 288 289
232 235 238 242 245 248 250 252 254 257 259 260 262 263 264 266 267 268 270 270 270 271 271 271 272 273 275 277 279 280 281 280 280 281 281 282 283 284 285 286 286 288 289
232 235 239 241 244 248 250 252 254 257 259 261 263 263 263 265 266 267 269 269 270 271 272 272 272 272 274 275 277 280 281 281 282 282 282 281 282 284 284 285 286 287 287
233 235 238 241 244 247 251 254 255 257 259 261 263 262 262 264 265 267 268 269 270 270 271 273 273 273 274 275 277 279 280 281 282 283 282 280 282 282 282 284 286 287 287
234 236 240 243 246 248 251 254 255 256 259 261 262 262 263 264 266 267 268 269 271 272 272 273 274 274 274 275 276 277 279 280 281 281 279 279 279 280 282 282 283 285 286
237 237 240 245 248 250 253 255 255 256 259 261 262 263 264 264 265 266 267 269 271 273 274 274 274 274 275 275 276 277 279 280 280 280 278 278 278 278 280 281 282 283 285
238 239 243 246 249 251 254 257 257 259 260 261 262 263 265 267 267 267 268 270 271 273 275 275 275 275 275 275 275 275 276 278 279 280 279 278 277 277 280 280 281 282 284
241 244 248 251 252 255 258 259 259 260 261 261 262 264 266 266 267 267 269 270 271 273 275 276 276 276 276 275 275 275 276 277 279 280 280 279 277 277 279 279 280 281 282
249 251 255 256 256 257 259 260 261 261 262 264 265 267 267 268 268 269 269 271 272 273 275 276 277 277 276 275 275 276 277 277 278 278 279 278 276 277 278 278 279 279 281
256 257 259 259 260 261 261 261 262 262 264 266 268 269 269 269 270 270 270 271 272 273 274 275 276 276 276 277 276 275 275 276 276 276 277 277 276 275 275 276 278 277 280
262 263 265 265 267 266 263 263 264 264 265 267 269 270 269 271 272 271 271 272 273 273 273 274 275 276 276 276 276 275 274 274 274 275 275 276 276 275 274 276 277 276 277
271 270 272 271 271 269 267 266 265 265 266 267 268 269 269 270 272 272 272 274 274 273 274 274 275 275 276 275 274 274 273 273 272 273 274 276 275 273 274 276 274 274 274
277 276 275 273 272 270 269 267 266 266 267 266 267 268 269 271 272 273 275 276 275 274 273 274 275 275 274 273 273 273 271 270 271 273 273 274 273 271 273 274 272 271 272
282 280 278 277 275 271 269 268 267 267 267 268 268 268 269 270 271 274 275 275 275 273 273 274 275 274 272 272 273 272 270 270 270 272 272 273 271 270 271 272 270 270 271
284 281 281 279 276 275 273 270 269 268 268 268 268 268 270 271 271 273 275 275 275 274 273 274 274 274 273 273 272 270 270 270 270 271 271 272 270 269 269 270 271 270 270
287 285 283 282 279 277 275 273 272 271 270 269 268 270 270 271 272 273 274 274 274 274 274 272 271 271 272 273 272 270 269 268 269 270 270 270 269 268 269 270 269 269 270